Home   Weather   Newmarket   Past weeks

Flag for Canada Past Weather in Newmarket, Ontario, Canada — Yesterday and Last 2 Weeks

Now
34 °F

Light rain. Fog.


Feels Like: 29 °F
Forecast: 32 / 37 °F
Wind: 6 mph from Northwest

Location: Borden

Current Time: Dec 3, 2016 at 8:54:07 am

Latest Report: Dec 3, 2016 at 8:00 am


Visibility: 3 mi

Pressure: 30.17 "Hg

Humidity: 93%

Dew Point: 32 °F

Location of NewmarketLocation

Past Weather in Newmarket — Graph

°F

Newmarket Temperature Yesterday

Maximum temperature yesterday: 41 °F (at 11:00 am)
Minimum temperature yesterday: 34 °F (at 4:55 pm)
Average temperature yesterday: 37 °F

High & Low Weather Summary for the Past Weeks

 TemperatureHumidityPressure
High66 °F (Nov 18, 2:00 pm)100% (Nov 19, 12:46 pm)30.39 "Hg (Nov 19, 12:46 pm)
Low23 °F (Nov 28, 12:45 am)56% (Nov 18, 2:00 pm)29.41 "Hg (Nov 30, 10:54 pm)
Average37 °F87%29.95 "Hg
* Reported Nov 18 7:00 am — Dec 3 7:04 am, Newmarket, Weather by CustomWeather, © 2016

Note: Actual official high and low records may vary slightly from our data, if they occured in-between our weather recording intervals... More about our weather records

Advertising

Newmarket Weather History for the Previous 24 Hours

Scroll right to see more
 ConditionsComfort  
Time TempWeatherWind HumidityBarometerVisibility
7:04 am
Sat, Dec 3
34 °FOvercast.6 mph93%30.12 "Hg9 mi
6:49 am34 °FLight rain. Overcast.9 mph93%30.12 "Hg9 mi
6:00 am34 °FLight rain. Overcast.6 mph93%30.14 "Hg9 mi
5:46 am34 °FLight rain. Overcast.6 mph93%30.11 "Hg9 mi
3:00 am34 °FLight rain. Haze.7 mph100%30.11 "Hg9 mi
2:55 am34 °FLight rain. Light fog.6 mph100%30.08 "Hg8 mi
2:00 am34 °FLight rain. Haze.8 mph93%30.10 "Hg9 mi
1:04 am34 °FOvercast.7 mph100%30.06 "Hg9 mi
12:45 am34 °FLight rain. Overcast.9 mph93%30.05 "Hg9 mi
12:02 am34 °FLight rain. Overcast.7 mph93%30.04 "Hg9 mi
11:00 pm
Fri, Dec 2
34 °FLight rain. Light fog.10 mph93%30.05 "Hg8 mi
10:04 pm34 °FLight rain. Overcast.5 mph93%30.00 "Hg2 mi
9:04 pm34 °FLight rain. Dense fog.12 mph93%29.98 "Hg1 mi
8:58 pm34 °FLight rain. Fog.8 mph93%29.98 "Hg2 mi
8:03 pm34 °FLight rain. Low clouds.7 mph93%29.97 "Hg1 mi
7:58 pm34 °FLight rain. Low clouds.6 mph93%29.97 "Hg2 mi
7:00 pm34 °FLight freezing rain. Dense fog.10 mph93%29.97 "Hg1 mi
6:02 pm34 °FLight rain. Fog.9 mph93%29.93 "Hg3 mi
5:04 pm34 °FLight rain. Light fog.12 mph93%29.91 "Hg5 mi
4:55 pm34 °FLight rain. Fog.16 mph93%29.90 "Hg2 mi
4:00 pm36 °FLight rain. Overcast.10 mph87%29.90 "Hg9 mi
3:52 pm37 °FLight rain. Mostly cloudy.13 mph87%29.88 "Hg9 mi
3:00 pm37 °FMostly cloudy.8 mph87%29.87 "Hg9 mi
2:00 pm37 °FLight rain. Overcast.7 mph93%29.85 "Hg9 mi
1:00 pm37 °FLight rain. Overcast.7 mph93%29.84 "Hg9 mi
12:00 pm37 °FLight rain. Overcast.10 mph87%29.84 "Hg9 mi
11:00 am41 °FMostly cloudy.15 mph76%29.83 "Hg9 mi
10:52 am39 °FMostly cloudy.13 mph81%29.81 "Hg9 mi
10:00 am39 °FOvercast.14 mph75%29.81 "Hg9 mi
9:00 am37 °FOvercast.13 mph81%29.79 "Hg9 mi
8:00 am37 °FMostly cloudy.15 mph81%29.79 "Hg9 mi
Weather by CustomWeather, © 2016

See weather overviewHow to use our weather pages